Location: Yamada Observatory
(36.7980°N, 119.2990°W)
Time: 22:56:18
(UTC-08:00)

N. Korean satellite - Visible Passes

Search period start: 20 January 2018 00:00
Search period end: 30 January 2018 00:00
Orbit: 458 x 515 km, 97.2° (Epoch: 20 January)

Date Brightness Start Highest point End Pass type
(mag) Time Alt. Az. Time Alt. Az. Time Alt. Az.
20 Jan 7.0 17:32:22 10° SE 17:35:45 39° ENE 17:39:05 10° N visible
21 Jan 6.7 06:34:54 10° NNE 06:38:21 77° E 06:41:48 10° S visible
21 Jan 9.4 18:42:52 10° SW 18:45:35 20° W 18:48:18 10° NW visible
22 Jan 8.5 06:11:30 10° NNE 06:14:39 33° E 06:17:48 10° SSE visible
22 Jan 8.0 18:18:25 10° S 18:21:51 41° W 18:25:14 10° NNW visible
23 Jan 9.8 05:48:39 10° NE 05:50:53 16° E 05:53:06 10° SE visible
23 Jan 6.5 17:54:36 10° SSE 17:58:10 86° ENE 18:01:43 10° N visible
24 Jan 10.4 19:08:05 10° W 19:08:12 10° W 19:08:19 10° W visible
25 Jan 6.8 06:33:41 10° NNE 06:37:08 74° E 06:40:36 10° S visible
25 Jan 9.4 18:41:40 10° SW 18:44:23 20° W 18:47:05 10° NW visible
26 Jan 8.6 06:10:17 10° NNE 06:13:26 32° E 06:16:36 10° SSE visible
26 Jan 7.9 18:17:14 10° S 18:20:38 42° W 18:24:00 10° NNW visible
27 Jan 9.8 05:47:27 10° NE 05:49:39 16° E 05:51:50 10° SE visible
27 Jan 6.4 17:53:24 10° SSE 17:56:57 83° ENE 18:00:28 10° N visible
28 Jan 10.3 19:06:36 10° W 19:06:58 10° W 19:07:20 10° W visible
29 Jan 9.4 18:40:26 10° SSW 18:43:08 21° W 18:45:50 10° NW visible
